Plymouth, MA

2:52 PM EDT on July 20, 2017 (GMT -0400)
Plymouth Municipal

Weather History for KPYM - October, 2012

Change the Weather History Date:

Monday, October 1, 2012

  Actual Average Record
Temperature  
Mean Temperature 58 °F -  
Max Temperature 69 °F 68 °F 84 °F (1986)
Min Temperature 48 °F 44 °F 31 °F (1992)
Degree Days  
Heating Degree Days 6    
Growing Degree Days 8 (Base 50)    
Moisture  
Dew Point 49 °F    
Average Humidity 73    
Maximum Humidity 90    
Minimum Humidity 51    
Precipitation  
Precipitation 0.01 in - - ()
Sea Level Pressure  
Sea Level Pressure 29.80 in    
Wind  
Wind Speed 9 mph (SW)    
Max Wind Speed 21 mph    
Max Gust Speed 30 mph    
Visibility 10 miles    
Events      
Averages and records for this station are not official NWS values.
T = Trace of Precipitation, MM = Missing Value Source: NWS Daily Summary

Daily Weather History Graph

Daily Weather History Graph

Search for Another Location

Airport or City:

Trip Planner

Search our weather history database for the weather conditions in past years. The results will help you decide how hot, cold, wet, or windy it might be!

Date:

Astronomy

Oct. 01, 2012 Rise Set
Actual Time 6:40 AM EDT 6:23 PM EDT
Civil Twilight 6:12 AM EDT 6:51 PM EDT
Nautical Twilight 5:40 AM EDT 7:23 PM EDT
Astronomical Twilight 5:07 AM EDT 7:56 PM EDT
Moon 6:56 PM EDT (10/1) 8:08 AM EDT (10/1)
Length of Visible Light 12h 39m
Length of Day
11h 43m
Full, 98% of the Moon is Illuminated
Oct 1
Full
Oct 8
Last Quarter
Oct 15
New
Oct 21
First Quarter
Oct 29
Full

Hourly Weather History & Observations

Time (EDT) Temp. Dew Point Humidity Pressure Visibility Wind Dir Wind Speed Gust Speed Precip Events Conditions
12:52 AM 55.0 °F 50.0 °F 83% 29.74 in 10.0 mi SSW 5.8 mph - N/A   Scattered Clouds
1:52 AM 53.1 °F 48.9 °F 86% 29.75 in 10.0 mi SW 5.8 mph - 0.01 in   Clear
2:52 AM 51.1 °F 46.9 °F 86% 29.75 in 10.0 mi SW 6.9 mph - N/A   Clear
3:52 AM 51.1 °F 46.0 °F 83% 29.75 in 10.0 mi SW 8.1 mph - N/A   Clear
4:52 AM 50.0 °F 46.0 °F 86% 29.75 in 10.0 mi SW 5.8 mph - N/A   Clear
5:52 AM 48.9 °F 46.0 °F 90% 29.77 in 10.0 mi SW 6.9 mph - N/A   Clear
6:52 AM 48.9 °F 46.0 °F 90% 29.77 in 10.0 mi SW 5.8 mph - N/A   Clear
7:52 AM 53.1 °F 48.0 °F 83% 29.78 in 10.0 mi SW 9.2 mph - N/A   Clear
8:52 AM 57.0 °F 48.9 °F 74% 29.78 in 10.0 mi WSW 16.1 mph - N/A   Clear
9:52 AM 60.1 °F 48.9 °F 67% 29.77 in 10.0 mi SW 15.0 mph 21.9 mph N/A   Clear
10:52 AM 63.0 °F 50.0 °F 63% 29.78 in 10.0 mi WSW 18.4 mph 27.6 mph N/A   Clear
11:52 AM 64.0 °F 48.9 °F 58% 29.78 in 10.0 mi WSW 19.6 mph 26.5 mph N/A   Partly Cloudy
12:52 PM 66.0 °F 50.0 °F 56% 29.78 in 10.0 mi WSW 16.1 mph 24.2 mph N/A   Mostly Cloudy
1:52 PM 68.0 °F 50.0 °F 52% 29.78 in 10.0 mi WSW 20.7 mph 29.9 mph N/A   Mostly Cloudy
2:52 PM 69.1 °F 50.0 °F 51% 29.78 in 10.0 mi WSW 16.1 mph 26.5 mph N/A   Partly Cloudy
3:52 PM 68.0 °F 50.0 °F 52% 29.79 in 10.0 mi WSW 11.5 mph - N/A   Clear
4:52 PM 68.0 °F 51.1 °F 55% 29.82 in 10.0 mi West 12.7 mph - N/A   Clear
6:52 PM 63.0 °F 52.0 °F 67% 29.87 in 10.0 mi WSW 6.9 mph - N/A   Overcast
7:52 PM 61.0 °F 51.1 °F 70% 29.90 in 10.0 mi WSW 8.1 mph - N/A   Partly Cloudy
8:52 PM 59.0 °F 51.1 °F 75% 29.92 in 10.0 mi WSW 5.8 mph - N/A   Scattered Clouds
9:52 PM 57.9 °F 52.0 °F 81% 29.94 in 10.0 mi SSW 5.8 mph - N/A   Clear
11:52 PM 53.1 °F 50.0 °F 89% 29.95 in 10.0 mi SSW 3.5 mph - N/A   Clear